Regional Weather Roundup
Issued by NWS

Home | Current Version | Previous Version | Graphics & Text | Print | Product List | Glossary On
Versions: 1 2 3 4 5 6 7 8 9 10 11 12 13 14 15 16 17 18 19 20 21 22 23 24 25 26 27 28 29 30 31 32 33 34 35 36 37 38 39 40 41 42 43 44 45 46 47 48 49 50
000
ASUS43 KFSD 250902
RWRSD

WEATHER ROUNDUP FOR SOUTH DAKOTA
NATIONAL WEATHER SERVICE SIOUX FALLS SD
400 AM CDT THU AUG 25 2016

NOTE: "FAIR" INDICATES FEW OR NO CLOUDS BELOW 12,000 FEET WITH NO
SIGNIFICANT WEATHER AND/OR OBSTRUCTIONS TO VISIBILITY.


SDZ001>005-009-010-012>017-251000-
NORTHWEST AND NORTH CENTRAL SOUTH DAKOTA

CITY           SKY/WX    TMP DP  RH WIND       PRES   REMARKS
BUFFALO          N/A     48  43  82 NW14      30.16R
FAITH            N/A     49  45  86 W13       30.20R
MOBRIDGE       CLEAR     57  47  69 W14       30.12R
$$

SDZ012>016-024>037-041>051-057-063-072>074-251000-
SOUTHWEST AND SOUTH CENTRAL SOUTH DAKOTA

CITY           SKY/WX    TMP DP  RH WIND       PRES   REMARKS
RAPID CTY ARPT CLOUDY    55  42  61 NW16      30.23S
PIERRE         CLEAR     54  46  74 NW8       30.15R
CUSTER         CLOUDY    50  44  80 W3        30.28S
ELLSWORTH AFB  MOCLDY    56  42  60 NW15      30.23S
PHILIP         PTCLDY    52  45  77 W7        30.21R
PINE RIDGE     CLOUDY    53  47  79 NE3       30.24R
WINNER         FAIR      54  50  86 NW8       30.18R
$$

SDZ004>011-016>023-039-040-251000-
NORTHEAST SOUTH DAKOTA

CITY           SKY/WX    TMP DP  RH WIND       PRES   REMARKS
ABERDEEN       CLEAR     56  47  71 W12       30.09R
WATERTOWN      CLEAR     59  50  72 NW9       30.08R
BROOKINGS      CLEAR     56  53  90 CALM      30.08
$$

SDZ017-020-022-023-036>040-048>070-251000-
SOUTHEAST SOUTH DAKOTA

CITY           SKY/WX    TMP DP  RH WIND       PRES   REMARKS
SIOUX FALLS    CLOUDY    62  56  80 W6        30.09R
HURON          CLEAR     52  48  86 NW5       30.11R
CHAMBERLAIN    CLEAR     63  50  62 N10       30.14S
MITCHELL       PTCLDY    57  53  86 NW8       30.12R
YANKTON        CLOUDY    61  52  72 CALM      30.10R
$$

ABBREVIATIONS USED IN REMARKS
   TC - TEMPERATURE IN CELSIUS
  WCI - WIND CHILL INDEX
   HX - HEAT INDEX
  VSB - VISIBILITY





USA.gov is the U.S. government's official web portal to all federal, state and local government web resources and services.